Wind_Speed
55 58 68 83 90 90 88 88 86 86 86 84 84 86 88 83 85 81 79 85 83 79 76 78 80 78 74 73 71 66 61 56 58 62 63 64 64 56 61 63 67 64 61 57 56
59 58 58 67 79 86 91 91 89 87 87 89 86 88 86 85 84 83 86 86 87 82 83 82 80 81 79 78 73 71 66 62 68 69 68 62 65 66 65 67 67 69 66 62 63
63 61 61 60 65 76 87 94 93 92 92 92 91 93 93 91 90 89 87 87 85 86 87 85 84 84 84 83 77 78 69 71 70 72 73 70 65 64 64 66 74 71 69 69 66
55 59 63 66 68 68 72 85 94 94 97 99 97 97 97 98 100 96 95 96 95 94 93 89 87 86 88 87 87 83 76 79 73 79 77 69 73 65 66 68 76 72 70 61 68
41 49 55 61 66 71 74 76 80 83 88 98 99 100 102 100 101 103 103 104 102 99 97 96 95 89 85 86 89 78 78 82 78 84 81 75 74 71 72 77 79 76 71 70 69
36 40 46 53 59 64 67 72 77 80 85 90 97 101 104 103 103 106 105 103 101 102 106 103 98 98 96 92 89 82 81 84 84 84 82 79 74 77 74 77 76 75 73 72 66
46 48 49 52 56 60 64 70 74 78 80 84 88 91 93 96 100 101 105 106 100 101 101 103 108 106 92 95 91 92 93 86 80 76 75 84 69 75 77 81 80 80 77 73 68
56 57 58 59 60 63 67 70 72 74 77 83 86 88 88 92 95 93 101 108 110 106 106 106 107 105 100 95 87 89 92 88 80 82 80 83 59 70 71 75 74 76 76 71 66
63 65 67 70 71 72 72 72 74 77 79 80 81 85 86 89 91 95 100 102 106 106 100 103 114 111 107 98 96 87 83 89 84 84 78 82 67 69 81 80 77 74 69 65 59
70 72 78 79 81 82 83 83 83 82 82 82 84 84 87 87 91 92 96 96 100 100 100 98 100 102 104 95 83 83 86 83 82 82 85 84 78 76 79 77 74 68 62 58 57
70 73 76 82 89 91 94 94 94 91 92 92 91 89 89 92 92 89 92 93 94 96 94 94 104 97 72 83 84 91 89 83 78 78 81 83 77 71 72 72 69 65 57 57 59
73 77 80 84 85 89 98 103 105 103 101 103 103 98 97 97 93 95 95 96 96 96 94 99 96 72 80 85 82 84 86 79 72 74 89 82 74 69 65 62 65 64 57 56 61
63 71 79 87 91 94 99 105 110 111 110 112 111 109 107 107 102 102 100 100 97 98 97 95 68 76 84 83 83 78 73 68 77 79 77 68 64 58 60 62 62 60 56 61 58
66 72 78 81 85 89 94 97 103 109 110 112 115 116 115 113 112 109 110 106 102 98 100 96 76 80 80 75 73 67 63 72 71 70 64 65 48 48 55 52 52 57 57 59 57
74 78 82 81 83 84 86 88 88 91 91 96 107 117 121 121 117 117 112 110 105 105 108 84 84 82 74 63 69 61 75 73 69 58 52 52 49 50 50 53 53 49 52 51 49
79 81 83 87 87 87 90 91 93 94 92 88 88 96 104 116 120 122 115 111 111 112 108 96 92 86 69 72 67 72 70 68 58 51 43 49 50 46 46 51 48 48 47 45 48
80 81 75 71 70 67 66 69 73 76 77 84 83 89 92 93 91 97 110 117 113 117 109 102 96 85 79 76 72 67 64 53 39 35 34 39 32 41 43 43 42 42 39 37 43
75 65 61 59 56 54 53 54 57 60 63 65 70 80 87 95 89 89 87 93 107 114 112 111 103 89 79 75 67 58 52 41 35 32 29 28 32 36 38 38 33 29 27 32 31
68 58 55 52 48 46 44 48 49 50 50 51 56 66 72 81 88 91 87 85 89 98 108 113 106 94 88 78 71 60 48 43 35 25 25 23 32 33 34 35 27 18 24 23 28
60 53 51 47 43 41 38 41 39 40 41 45 48 54 62 68 76 82 88 90 88 88 98 106 107 96 86 86 78 61 57 51 36 20 22 29 33 34 33 30 18 23 22 21 20
57 52 47 45 40 35 33 32 33 32 33 38 42 48 52 55 64 68 72 81 92 92 86 87 97 96 95 85 75 69 60 47 27 22 27 32 32 32 25 20 21 20 17 18 19
55 48 43 38 34 27 27 24 24 24 26 32 35 40 44 49 51 55 60 68 75 88 94 89 93 104 88 81 80 73 63 45 37 35 34 30 33 30 26 24 23 19 18 19 19
54 47 41 34 31 25 22 21 18 17 20 25 28 32 38 43 46 48 49 60 64 74 93 88 89 94 94 94 88 73 57 46 38 35 32 34 34 25 32 27 24 21 20 19 24
53 44 39 37 31 28 22 19 15 13 15 18 21 27 31 37 41 45 48 52 57 68 85 90 92 90 100 80 78 69 55 42 35 40 44 42 40 29 32 27 23 21 20 23 24
59 47 42 41 36 30 24 19 15 10 11 14 18 22 26 33 36 39 44 45 54 64 75 90 93 95 96 91 83 71 56 45 39 49 46 46 40 34 35 29 24 23 23 24 20
69 57 46 44 37 31 25 19 17 10 6 11 16 21 25 29 30 30 34 40 51 59 70 90 100 98 97 88 80 68 56 52 53 56 49 39 37 35 38 26 16 18 23 22 15
78 59 53 49 43 34 27 19 15 9 2 8 14 17 22 25 25 28 36 42 45 57 70 89 99 100 96 88 78 71 63 56 57 55 47 37 38 30 27 19 20 21 21 23 17
Wind_Direction
246 242 239 235 236 237 238 240 244 241 241 245 245 243 245 246 246 246 250 252 249 253 256 257 258 254 256 254 251 259 262 262 267 268 270 269 268 267 272 280 283 284 289 296 296
248 247 244 240 239 241 238 239 241 239 242 245 247 245 246 246 248 248 250 252 250 251 253 255 256 257 257 256 254 260 261 263 266 267 269 272 271 271 273 280 282 282 284 295 297
251 250 251 248 244 242 241 241 239 242 243 243 245 246 247 246 248 249 248 250 254 252 253 253 254 256 255 257 257 258 260 263 266 269 269 270 271 276 277 280 278 281 285 293 296
253 251 249 248 249 248 245 243 242 246 246 244 247 246 247 247 248 244 248 251 253 253 251 251 254 253 254 257 260 262 266 265 266 269 272 275 272 278 278 278 276 281 288 297 292
258 256 256 253 249 248 247 245 245 245 245 244 245 246 247 247 249 252 253 254 256 255 251 251 252 252 253 256 257 262 263 262 266 272 274 275 275 277 280 274 275 283 293 291 292
266 262 259 256 254 252 250 250 250 249 247 246 245 246 246 248 250 251 249 252 254 254 255 255 250 251 253 254 255 256 259 266 270 271 273 273 275 274 272 269 274 282 287 286 290
266 262 259 256 256 255 255 253 250 248 248 248 248 246 247 249 249 250 248 250 254 255 255 255 253 253 255 255 255 257 261 259 262 264 265 267 271 270 266 268 274 281 281 285 287
268 265 261 259 256 254 254 253 253 252 252 250 248 247 245 247 248 249 250 251 252 253 256 257 255 255 258 259 257 258 258 262 263 263 262 265 266 265 266 270 276 276 277 281 281
265 262 260 259 258 257 255 253 253 252 250 250 251 250 247 247 247 247 248 250 249 250 253 253 255 255 256 258 257 258 260 260 258 259 258 262 256 258 266 273 283 279 278 279 279
265 263 260 257 255 255 255 253 252 250 249 249 248 249 248 248 249 250 247 248 250 250 250 252 253 254 256 258 259 254 253 256 259 259 264 264 268 266 270 279 284 278 279 279 277
268 265 264 260 257 254 252 251 250 249 249 247 245 245 246 246 246 247 249 250 251 252 252 250 251 254 257 252 250 255 255 257 259 260 267 269 269 263 269 279 275 277 277 276 274
274 270 267 263 260 258 256 253 249 247 246 247 246 242 244 243 244 244 245 247 250 251 249 250 253 255 248 253 254 252 255 256 252 258 264 266 272 271 272 272 270 271 271 270 270
277 272 268 266 264 260 255 252 251 249 245 245 246 245 243 243 240 241 242 244 246 248 250 252 251 238 250 251 252 254 255 253 256 259 264 265 270 269 268 263 264 265 265 264 265
283 278 273 271 268 265 262 260 256 253 250 247 248 247 245 243 242 240 241 241 242 245 249 249 240 248 251 251 253 254 253 255 257 257 263 268 267 264 259 261 261 260 258 261 262
285 283 281 280 280 279 275 272 268 264 259 257 252 248 246 244 244 243 242 243 243 241 243 246 244 248 248 249 247 247 253 253 256 260 261 265 259 260 258 262 266 264 260 259 263
292 290 290 287 282 276 273 270 267 265 262 256 252 251 249 247 245 243 242 244 241 242 243 239 241 242 243 241 243 245 251 254 258 261 262 257 263 258 265 264 264 261 259 256 258
303 301 295 290 284 280 274 269 265 262 258 255 248 247 248 248 244 243 242 240 241 240 243 240 239 239 239 242 246 254 254 257 257 253 251 265 266 266 267 265 262 256 251 252 255
315 309 301 295 292 287 280 275 269 263 258 252 247 243 243 244 244 242 237 236 236 239 238 238 235 235 237 240 242 244 243 241 241 247 257 264 258 262 259 264 258 250 237 249 256
322 316 308 303 300 293 287 278 272 267 261 253 245 242 238 239 238 238 236 232 231 231 234 234 233 232 232 232 235 237 239 239 235 244 251 255 257 250 248 254 246 231 241 240 244
328 321 316 313 308 301 290 283 275 266 257 251 243 239 236 235 234 233 230 228 228 226 227 231 229 231 230 228 231 232 228 239 246 236 237 245 253 247 245 248 222 213 228 234 243
334 329 323 318 315 308 299 287 277 267 256 248 242 237 235 232 232 232 228 227 223 224 225 227 228 229 229 230 232 233 243 239 226 220 226 240 244 243 242 235 207 207 221 236 253
339 333 329 328 323 319 308 297 281 270 254 247 240 236 233 232 231 228 224 225 221 219 221 219 219 223 224 219 225 227 227 214 207 209 217 233 235 234 236 213 203 204 218 240 257
344 340 342 345 338 332 322 309 294 275 251 242 235 231 229 227 226 225 221 220 217 214 214 213 215 218 218 220 221 223 221 219 213 220 214 224 233 228 219 205 200 211 233 250 265
353 354 356 356 353 344 338 325 310 285 253 240 229 226 225 224 222 219 215 215 210 210 209 208 211 211 213 213 215 216 216 206 206 200 206 217 226 225 208 197 209 220 231 252 251
5 3 8 5 358 355 349 340 329 305 263 230 222 220 221 224 221 215 213 209 205 205 204 202 204 206 209 211 212 212 209 197 199 198 204 220 220 213 203 198 207 221 246 249 251
11 11 11 11 5 2 357 354 351 333 277 224 209 211 215 219 218 215 207 204 204 201 199 197 198 202 203 204 207 207 199 193 198 199 207 213 211 211 211 195 213 241 243 237 254
13 14 16 13 10 6 6 4 10 15 322 227 215 205 208 211 205 200 200 199 196 198 195 194 196 198 199 199 200 205 202 193 199 202 211 210 203 198 202 205 231 238 229 243 249
Height
10749 10751 10753 10757 10760 10764 10769 10773 10777 10782 10785 10790 10793 10798 10802 10805 10807 10814 10816 10811 10823 10829 10832 10833 10834 10839 10845 10850 10855 10858 10869 10873 10869 10865 10863 10868 10871 10878 10877 10873 10864 10869 10869 10872 10868
10738 10739 10741 10744 10748 10751 10753 10757 10762 10767 10771 10774 10778 10782 10785 10788 10792 10801 10798 10797 10803 10817 10815 10816 10819 10824 10832 10835 10846 10849 10856 10863 10852 10855 10857 10859 10862 10864 10869 10864 10848 10860 10859 10861 10856
10726 10728 10730 10732 10735 10737 10739 10743 10746 10750 10753 10757 10761 10765 10768 10771 10774 10781 10783 10779 10785 10799 10798 10801 10805 10811 10817 10821 10833 10836 10850 10846 10847 10843 10843 10851 10854 10855 10858 10857 10837 10846 10848 10851 10844
10711 10712 10715 10717 10718 10720 10722 10725 10729 10732 10736 10741 10743 10747 10748 10751 10756 10768 10763 10761 10766 10772 10779 10784 10789 10798 10802 10808 10810 10823 10835 10829 10836 10826 10831 10843 10841 10849 10845 10842 10824 10835 10840 10840 10831
10702 10701 10700 10701 10703 10703 10705 10707 10709 10712 10716 10721 10723 10726 10727 10734 10742 10739 10742 10743 10748 10750 10758 10769 10772 10780 10795 10794 10789 10818 10820 10813 10820 10817 10821 10828 10833 10835 10835 10819 10813 10827 10828 10825 10821
10693 10690 10689 10687 10686 10686 10687 10689 10691 10693 10696 10698 10701 10705 10707 10715 10715 10716 10723 10722 10728 10732 10734 10744 10756 10761 10771 10783 10788 10794 10801 10805 10810 10808 10808 10811 10823 10820 10816 10801 10804 10815 10815 10812 10812
10682 10679 10676 10673 10671 10669 10669 10670 10671 10673 10674 10676 10680 10684 10691 10695 10688 10696 10699 10706 10708 10711 10713 10723 10732 10740 10762 10764 10780 10783 10784 10792 10795 10796 10797 10782 10817 10805 10799 10789 10797 10799 10800 10801 10801
10665 10662 10660 10658 10656 10654 10652 10652 10652 10652 10653 10654 10657 10661 10671 10667 10670 10669 10677 10688 10690 10694 10696 10702 10708 10728 10743 10752 10762 10762 10767 10779 10779 10777 10779 10766 10814 10782 10782 10781 10787 10788 10788 10789 10790
10645 10642 10639 10637 10635 10633 10633 10632 10633 10633 10633 10634 10636 10639 10648 10647 10644 10649 10661 10663 10667 10677 10681 10678 10691 10707 10719 10736 10741 10753 10759 10755 10754 10754 10761 10755 10787 10770 10764 10770 10777 10776 10777 10778 10780
10623 10618 10616 10612 10609 10608 10607 10607 10607 10610 10611 10614 10616 10619 10621 10623 10626 10630 10640 10641 10647 10653 10660 10668 10674 10683 10703 10718 10734 10726 10728 10732 10739 10740 10742 10747 10764 10764 10756 10760 10763 10765 10766 10767 10768
10598 10594 10589 10585 10582 10580 10577 10575 10577 10581 10582 10587 10590 10595 10599 10599 10609 10611 10614 10620 10626 10630 10647 10647 10651 10679 10695 10690 10703 10702 10709 10722 10724 10727 10733 10732 10744 10748 10749 10751 10750 10752 10756 10756 10755
10571 10565 10559 10555 10552 10549 10546 10542 10542 10549 10555 10552 10554 10568 10572 10576 10590 10589 10592 10598 10603 10615 10615 10623 10651 10681 10656 10672 10684 10688 10694 10708 10709 10714 10708 10718 10731 10736 10737 10740 10738 10739 10743 10743 10741
10545 10537 10529 10522 10517 10513 10509 10506 10506 10509 10521 10518 10522 10535 10542 10545 10560 10563 10572 10576 10585 10586 10599 10611 10658 10626 10647 10657 10664 10673 10684 10686 10693 10694 10700 10710 10718 10723 10721 10721 10723 10727 10729 10725 10727
10521 10510 10499 10490 10484 10477 10475 10472 10473 10471 10485 10491 10492 10497 10504 10514 10520 10535 10541 10552 10566 10576 10573 10591 10621 10626 10634 10648 10652 10664 10663 10671 10679 10685 10696 10695 10712 10704 10699 10705 10708 10706 10709 10712 10716
10493 10479 10466 10458 10451 10446 10441 10437 10436 10436 10447 10459 10462 10457 10467 10480 10491 10500 10518 10527 10549 10554 10544 10601 10600 10609 10623 10643 10636 10653 10645 10656 10668 10681 10684 10682 10691 10683 10685 10690 10692 10697 10700 10703 10707
10464 10449 10436 10424 10416 10409 10401 10398 10397 10398 10400 10409 10420 10422 10431 10443 10458 10470 10494 10505 10520 10525 10539 10571 10578 10590 10619 10611 10624 10626 10638 10649 10662 10669 10675 10660 10676 10662 10682 10679 10683 10686 10689 10693 10694
10433 10416 10398 10385 10376 10371 10366 10362 10360 10360 10366 10370 10386 10389 10393 10403 10423 10444 10460 10480 10492 10499 10529 10550 10564 10582 10593 10601 10611 10625 10632 10645 10653 10658 10659 10662 10664 10659 10666 10669 10672 10674 10679 10683 10685
10402 10383 10368 10355 10347 10342 10337 10334 10332 10333 10334 10342 10349 10355 10365 10367 10391 10405 10423 10443 10464 10479 10509 10518 10537 10571 10588 10596 10607 10619 10625 10637 10643 10649 10651 10653 10653 10654 10657 10658 10664 10666 10670 10675 10679
10375 10359 10345 10334 10327 10320 10316 10309 10309 10310 10313 10317 10324 10328 10337 10346 10360 10375 10395 10414 10430 10454 10473 10496 10523 10549 10566 10580 10590 10608 10621 10628 10634 10644 10643 10646 10643 10645 10649 10651 10657 10662 10667 10671 10675
10354 10340 10327 10317 10309 10302 10298 10292 10292 10292 10294 10297 10303 10309 10315 10326 10334 10346 10366 10385 10407 10428 10441 10468 10509 10534 10555 10560 10575 10599 10603 10617 10631 10637 10637 10637 10636 10638 10644 10649 10656 10661 10664 10667 10670
10339 10325 10313 10303 10295 10288 10282 10280 10277 10278 10280 10282 10286 10292 10299 10309 10315 10329 10346 10362 10382 10408 10441 10464 10495 10520 10527 10552 10577 10585 10602 10614 10624 10629 10630 10628 10629 10636 10642 10648 10653 10656 10660 10664 10666
10329 10315 10303 10293 10283 10278 10272 10269 10267 10267 10269 10270 10274 10281 10288 10294 10304 10315 10331 10343 10366 10391 10416 10438 10470 10483 10531 10551 10557 10571 10589 10602 10612 10618 10620 10623 10625 10634 10639 10645 10649 10653 10657 10660 10662
10321 10307 10295 10286 10277 10270 10265 10260 10258 10259 10259 10261 10266 10272 10278 10284 10294 10306 10321 10329 10351 10373 10390 10428 10453 10480 10513 10518 10536 10565 10584 10598 10606 10611 10616 10619 10624 10633 10637 10642 10646 10649 10652 10655 10656
10317 10302 10290 10281 10273 10266 10260 10256 10253 10253 10253 10256 10261 10264 10271 10277 10285 10296 10308 10321 10341 10355 10375 10410 10439 10472 10487 10532 10539 10559 10577 10590 10600 10607 10608 10612 10619 10628 10634 10638 10641 10645 10649 10651 10651
10318 10302 10288 10278 10270 10263 10258 10254 10251 10250 10251 10252 10256 10260 10266 10271 10280 10291 10301 10318 10330 10343 10367 10397 10432 10454 10483 10501 10523 10547 10567 10580 10592 10594 10604 10603 10617 10623 10628 10632 10637 10641 10645 10645 10648
10321 10302 10289 10279 10271 10263 10257 10252 10250 10250 10250 10251 10253 10256 10261 10267 10278 10291 10302 10313 10323 10340 10358 10386 10412 10441 10471 10496 10519 10541 10555 10568 10575 10583 10592 10599 10612 10617 10624 10630 10635 10638 10641 10642 10644
10327 10309 10293 10280 10272 10264 10258 10253 10251 10249 10250 10251 10252 10257 10261 10267 10275 10286 10294 10304 10323 10336 10352 10375 10404 10434 10462 10485 10509 10527 10542 10558 10566 10576 10585 10598 10607 10618 10622 10626 10629 10633 10637 10639 10641